Location: Freistadt
(48.5112°N, 14.5013°E)
Time: 21:37:57
(UTC+02:00)

VELOX 1 - Pass Details

Date: 29 February 2024
Orbit: 607 x 620 km, 98.4° (Epoch: 13 April)

Event Time Altitude Azimuth Distance (km) Brightness Sun altitude
Rises 05:24:31 0° 119° (ESE) 2,883 ? -14.1°
Reaches altitude 10° 05:27:21 10° 99° (E) 1,979 ? -13.6°
Maximum altitude 05:30:04 17° 59° (ENE) 1,583 ? -13.2°
Drops below altitude 10° 05:32:48 10° 20° (NNE) 1,982 ? -12.7°
Sets 05:35:37 0° 0° (N) 2,889 ? -12.3°
